Selinsgrove, PA

10:33 AM EDT on August 23, 2017 (GMT -0400)
Penn Valley

Weather History for KSEG - September, 2012

Change the Weather History Date:

Sunday, September 30, 2012

  Actual Average (KIPT) Record (KIPT)
Temperature  
Mean Temperature 56 °F -  
Max Temperature 63 °F 65 °F 93 °F (1953)
Min Temperature 46 °F 44 °F 31 °F (1932)
Degree Days  
Heating Degree Days 10    
Growing Degree Days 6 (Base 50)    
Moisture  
Dew Point 48 °F    
Average Humidity 85    
Maximum Humidity 100    
Minimum Humidity 55    
Precipitation  
Precipitation 0.04 in - - ()
Sea Level Pressure  
Sea Level Pressure 29.89 in    
Wind  
Wind Speed 1 mph (NW)    
Max Wind Speed 8 mph    
Max Gust Speed -    
Visibility 7 miles    
Events Rain , Thunderstorm    
Averages and records for this station are not official NWS values.
T = Trace of Precipitation, MM = Missing Value Source: NWS Daily Summary

Daily Weather History Graph

Daily Weather History Graph

Search for Another Location

Airport or City:

Trip Planner

Search our weather history database for the weather conditions in past years. The results will help you decide how hot, cold, wet, or windy it might be!

Date:

Astronomy

Sep. 30, 2012 Rise Set
Actual Time 7:03 AM EDT 6:50 PM EDT
Civil Twilight 6:36 AM EDT 7:17 PM EDT
Nautical Twilight 6:04 AM EDT 7:49 PM EDT
Astronomical Twilight 5:32 AM EDT 8:21 PM EDT
Moon 6:52 PM EDT (9/30) 7:32 AM EDT (9/30)
Length of Visible Light 12h 41m
Length of Day
11h 46m
Full, 100% of the Moon is Illuminated
Sep 30
Full
Oct 8
Last Quarter
Oct 15
New
Oct 21
First Quarter
Oct 29
Full

Hourly Weather History & Observations

Time (EDT) Temp. Dew Point Humidity Pressure Visibility Wind Dir Wind Speed Gust Speed Precip Events Conditions
12:26 AM 50.0 °F 48.2 °F 94% 29.93 in 8.0 mi Calm Calm - N/A   Scattered Clouds
12:53 AM 50.0 °F 48.9 °F 96% 29.93 in 8.0 mi Calm Calm - N/A   Scattered Clouds
1:53 AM 50.0 °F 48.9 °F 96% 29.92 in 6.0 mi Calm Calm - N/A   Mostly Cloudy
2:53 AM 50.0 °F 48.0 °F 93% 29.90 in 7.0 mi Calm Calm - N/A   Scattered Clouds
3:53 AM 50.0 °F 48.9 °F 96% 29.90 in 7.0 mi Calm Calm - N/A   Overcast
4:36 AM 50.0 °F 48.2 °F 94% 29.90 in 7.0 mi Calm Calm - N/A   Overcast
4:53 AM 50.0 °F 48.0 °F 93% 29.90 in 7.0 mi Calm Calm - N/A   Mostly Cloudy
5:31 AM 48.2 °F 48.2 °F 100% 29.89 in 6.0 mi Calm Calm - N/A   Mostly Cloudy
5:53 AM 48.9 °F 48.0 °F 97% 29.90 in 6.0 mi Calm Calm - N/A   Overcast
6:40 AM 48.2 °F 46.4 °F 93% 29.90 in 1.8 mi Calm Calm - N/A   Overcast
6:43 AM 48.2 °F 48.2 °F 100% 29.90 in 0.8 mi Calm Calm - N/A   Overcast
6:53 AM 48.0 °F 46.9 °F 96% 29.90 in 0.8 mi North 3.5 mph - N/A   Overcast
7:32 AM 48.2 °F 46.4 °F 93% 29.91 in 1.0 mi Calm Calm - N/A   Mostly Cloudy
7:35 AM 48.2 °F 48.2 °F 100% 29.92 in 2.0 mi NNW 3.5 mph - N/A   Overcast
7:46 AM 48.2 °F 48.2 °F 100% 29.91 in 5.0 mi Calm Calm - N/A   Overcast
7:53 AM 48.0 °F 46.9 °F 96% 29.91 in 6.0 mi Calm Calm - N/A   Mostly Cloudy
8:53 AM 52.0 °F 48.9 °F 89% 29.90 in 9.0 mi Calm Calm - N/A   Clear
9:53 AM 55.0 °F 50.0 °F 83% 29.89 in 10.0 mi Calm Calm - N/A   Partly Cloudy
10:53 AM 59.0 °F 48.0 °F 67% 29.88 in 10.0 mi Calm Calm - N/A   Mostly Cloudy
11:53 AM 60.1 °F 46.9 °F 62% 29.87 in 10.0 mi Variable 3.5 mph - N/A   Partly Cloudy
12:53 PM 62.1 °F 46.9 °F 58% 29.86 in 10.0 mi NW 8.1 mph - 0.00 in Rain Light Rain
1:53 PM 63.0 °F 48.0 °F 58% 29.85 in 10.0 mi Variable 6.9 mph - 0.02 in   Scattered Clouds
2:53 PM 63.0 °F 46.9 °F 56% 29.84 in 10.0 mi West 3.5 mph - 0.01 in   Clear
3:53 PM 62.1 °F 46.0 °F 56% 29.83 in 10.0 mi Calm Calm - 0.00 in Rain , Thunderstorm Light Rain
4:12 PM 62.6 °F 46.4 °F 55% 29.83 in 10.0 mi Calm Calm - 0.00 in   Overcast
4:53 PM 62.1 °F 48.0 °F 60% 29.83 in 10.0 mi Variable 5.8 mph - 0.00 in   Overcast
5:53 PM 59.0 °F 48.9 °F 69% 29.84 in 10.0 mi WNW 3.5 mph - N/A   Scattered Clouds
6:53 PM 55.0 °F 52.0 °F 89% 29.84 in 10.0 mi WNW 3.5 mph - 0.01 in   Mostly Cloudy
7:53 PM 52.0 °F 50.0 °F 93% 29.87 in 10.0 mi Calm Calm - N/A   Clear
8:53 PM 52.0 °F 51.1 °F 97% 29.88 in 7.0 mi Calm Calm - N/A   Overcast
9:53 PM 50.0 °F 48.9 °F 96% 29.89 in 5.0 mi Calm Calm - N/A   Clear
10:53 PM 48.9 °F 46.9 °F 93% 29.90 in 4.0 mi Calm Calm - N/A   Clear
11:53 PM 46.9 °F 46.0 °F 97% 29.90 in 4.0 mi Calm Calm - N/A   Clear